Grand Rapids, MN

10:14 PM CDT on October 16, 2017 (GMT -0500)
Grand Rapids-Itasca County-Newstrom Field

Weather History for KGPZ - February, 2013

Change the Weather History Date:

Friday, February 15, 2013

  Actual Average Record
Temperature  
Mean Temperature 5 °F -  
Max Temperature 12 °F 22 °F 47 °F (1931)
Min Temperature -2 °F 0 °F -42 °F (1939)
Degree Days  
Heating Degree Days 60    
Moisture  
Dew Point -2 °F    
Average Humidity 75    
Maximum Humidity 92    
Minimum Humidity 57    
Precipitation  
Precipitation 0.00 in - - ()
Sea Level Pressure  
Sea Level Pressure 30.18 in    
Wind  
Wind Speed 10 mph (NW)    
Max Wind Speed 17 mph    
Max Gust Speed 20 mph    
Visibility 10 miles    
Events      
Averages and records for this station are not official NWS values.
T = Trace of Precipitation, MM = Missing Value Source: NWS Daily Summary

Daily Weather History Graph

Daily Weather History Graph

Search for Another Location

Airport or City:

Trip Planner

Search our weather history database for the weather conditions in past years. The results will help you decide how hot, cold, wet, or windy it might be!

Date:

Astronomy

Feb. 15, 2013 Rise Set
Actual Time 7:18 AM CST 5:38 PM CST
Civil Twilight 6:46 AM CST 6:10 PM CST
Nautical Twilight 6:11 AM CST 6:45 PM CST
Astronomical Twilight 5:35 AM CST 7:21 PM CST
Moon 9:28 AM CST (2/15) No Moon Set
Length of Visible Light 11h 23m
Length of Day
10h 20m
Waxing Crescent, 30% of the Moon is Illuminated
Feb 15
Waxing Crescent
Feb 17
First Quarter
Feb 25
Full
Mar 4
Last Quarter
Mar 11
New

Hourly Weather History & Observations

Time (CST) Temp. Windchill Dew Point Humidity Pressure Visibility Wind Dir Wind Speed Gust Speed Precip Events Conditions
12:15 AM 6.8 °F -7.8 °F -0.4 °F 72% 30.11 in 10.0 mi NW 10.4 mph - N/A   Partly Cloudy
12:35 AM 5.0 °F -10.8 °F -0.4 °F 78% 30.11 in 10.0 mi WNW 11.5 mph - N/A   Clear
12:55 AM 5.0 °F -9.1 °F -0.4 °F 78% 30.12 in 10.0 mi WNW 9.2 mph - N/A   Clear
1:15 AM 3.2 °F -10.3 °F -0.4 °F 85% 30.12 in 10.0 mi WNW 8.1 mph - N/A   Clear
1:35 AM 3.2 °F -12.2 °F -0.4 °F 85% 30.12 in 10.0 mi WNW 10.4 mph - N/A   Clear
1:55 AM 3.2 °F -13.1 °F -2.2 °F 78% 30.12 in 10.0 mi WNW 11.5 mph - N/A   Clear
2:15 AM 3.2 °F -10.3 °F -2.2 °F 78% 30.12 in 10.0 mi NW 8.1 mph - N/A   Clear
2:35 AM 1.4 °F -11.3 °F -2.2 °F 85% 30.13 in 10.0 mi WNW 6.9 mph - N/A   Clear
2:55 AM 1.4 °F -12.5 °F -2.2 °F 85% 30.13 in 10.0 mi WNW 8.1 mph - N/A   Clear
3:15 AM 1.4 °F -12.5 °F -2.2 °F 85% 30.14 in 10.0 mi NW 8.1 mph - N/A   Clear
3:35 AM 1.4 °F -12.5 °F -2.2 °F 85% 30.14 in 10.0 mi WNW 8.1 mph - N/A   Clear
3:55 AM -0.4 °F -15.7 °F -2.2 °F 92% 30.14 in 10.0 mi WNW 9.2 mph - N/A   Clear
4:15 AM -0.4 °F -16.7 °F -2.2 °F 92% 30.14 in 10.0 mi NW 10.4 mph - N/A   Clear
4:35 AM -0.4 °F -15.7 °F -4.0 °F 85% 30.14 in 10.0 mi NW 9.2 mph - N/A   Clear
4:55 AM -0.4 °F -16.7 °F -5.8 °F 78% 30.14 in 10.0 mi NW 10.4 mph - N/A   Clear
5:15 AM -0.4 °F -16.7 °F -5.8 °F 78% 30.15 in 10.0 mi NW 10.4 mph - N/A   Clear
5:35 AM -0.4 °F -14.7 °F -5.8 °F 78% 30.16 in 10.0 mi NW 8.1 mph - N/A   Clear
5:55 AM -2.2 °F -18.0 °F -5.8 °F 85% 30.16 in 10.0 mi NW 9.2 mph - N/A   Clear
6:15 AM -2.2 °F -16.8 °F -5.8 °F 85% 30.17 in 10.0 mi NW 8.1 mph - N/A   Clear
6:35 AM -2.2 °F -18.0 °F -5.8 °F 85% 30.17 in 10.0 mi NW 9.2 mph - N/A   Clear
6:55 AM -2.2 °F -16.8 °F -5.8 °F 85% 30.18 in 10.0 mi NW 8.1 mph - N/A   Clear
7:15 AM -2.2 °F -16.8 °F -7.6 °F 78% 30.18 in 10.0 mi NW 8.1 mph - N/A   Clear
7:35 AM -2.2 °F -15.6 °F -7.6 °F 78% 30.19 in 9.0 mi NW 6.9 mph - N/A   Clear
7:55 AM -2.2 °F -16.8 °F -7.6 °F 78% 30.19 in 10.0 mi NW 8.1 mph - N/A   Clear
8:15 AM -2.2 °F -15.6 °F -7.6 °F 78% 30.21 in 10.0 mi NW 6.9 mph - N/A   Clear
8:35 AM -2.2 °F -18.0 °F -7.6 °F 78% 30.21 in 9.0 mi NW 9.2 mph - N/A   Clear
8:55 AM -2.2 °F -18.0 °F -5.8 °F 85% 30.21 in 10.0 mi NW 9.2 mph - N/A   Clear
9:15 AM -0.4 °F -15.7 °F -5.8 °F 78% 30.21 in 10.0 mi NW 9.2 mph - N/A   Clear
9:35 AM -0.4 °F -15.7 °F -5.8 °F 78% 30.22 in 10.0 mi NW 9.2 mph - N/A   Clear
9:55 AM 1.4 °F -11.3 °F -2.2 °F 85% 30.22 in 10.0 mi WNW 6.9 mph - N/A   Clear
10:15 AM 1.4 °F -9.9 °F -4.0 °F 78% 30.22 in 10.0 mi NW 5.8 mph - N/A   Clear
10:35 AM 1.4 °F -8.3 °F -2.2 °F 85% 30.22 in 10.0 mi West 4.6 mph - N/A   Clear
10:55 AM 3.2 °F -9.1 °F -4.0 °F 72% 30.23 in 10.0 mi WNW 6.9 mph - N/A   Clear
11:15 AM 5.0 °F -10.0 °F -2.2 °F 72% 30.23 in 10.0 mi WNW 10.4 mph - N/A   Clear
11:55 AM 6.8 °F -10.7 °F -2.2 °F 67% 30.23 in 10.0 mi NW 15.0 mph - N/A   Clear
12:15 PM 8.6 °F -8.3 °F -2.2 °F 62% 30.22 in 10.0 mi NW 15.0 mph - N/A   Partly Cloudy
12:35 PM 8.6 °F -7.7 °F -0.4 °F 67% 30.22 in 9.0 mi NW 13.8 mph - N/A   Partly Cloudy
12:55 PM 8.6 °F -8.3 °F -2.2 °F 62% 30.22 in 10.0 mi NNW 15.0 mph 19.6 mph N/A   Partly Cloudy
1:15 PM 8.6 °F -8.9 °F -2.2 °F 62% 30.21 in 10.0 mi NW 16.1 mph - N/A   Mostly Cloudy
1:35 PM 10.4 °F -4.1 °F -0.4 °F 62% 30.21 in 10.0 mi NNW 11.5 mph 16.1 mph N/A   Mostly Cloudy
1:55 PM 12.2 °F -1.8 °F 1.4 °F 62% 30.21 in 10.0 mi NW 11.5 mph 17.3 mph N/A   Mostly Cloudy
2:15 PM 10.4 °F -7.2 °F -2.2 °F 57% 30.20 in 10.0 mi NNW 17.3 mph - N/A   Overcast
2:35 PM 10.4 °F -6.0 °F -0.4 °F 62% 30.20 in 10.0 mi NW 15.0 mph 19.6 mph N/A   Overcast
2:55 PM 10.4 °F -4.8 °F -0.4 °F 62% 30.20 in 10.0 mi NW 12.7 mph - N/A   Overcast
3:15 PM 10.4 °F -4.1 °F 1.4 °F 67% 30.20 in 8.0 mi NW 11.5 mph - N/A   Overcast
3:35 PM 10.4 °F -1.5 °F 1.4 °F 67% 30.20 in 9.0 mi WNW 8.1 mph 17.3 mph N/A   Overcast
3:55 PM 10.4 °F -4.1 °F 1.4 °F 67% 30.20 in 10.0 mi WNW 11.5 mph 16.1 mph N/A   Overcast
4:15 PM 10.4 °F -4.8 °F -0.4 °F 62% 30.20 in 10.0 mi WNW 12.7 mph 18.4 mph N/A   Overcast
4:35 PM 10.4 °F -6.0 °F -0.4 °F 62% 30.20 in 10.0 mi WNW 15.0 mph - N/A   Overcast
4:55 PM 10.4 °F -4.8 °F -0.4 °F 62% 30.20 in 10.0 mi WNW 12.7 mph - N/A   Overcast
5:15 PM 8.6 °F -6.3 °F -0.4 °F 67% 30.20 in 10.0 mi WNW 11.5 mph - N/A   Overcast
5:35 PM 8.6 °F -4.7 °F -0.4 °F 67% 30.20 in 10.0 mi WNW 9.2 mph - N/A   Overcast
5:55 PM 8.6 °F -5.5 °F -0.4 °F 67% 30.20 in 10.0 mi NW 10.4 mph - N/A   Overcast
6:15 PM 8.6 °F -3.7 °F -0.4 °F 67% 30.20 in 10.0 mi WNW 8.1 mph - N/A   Overcast
6:35 PM 8.6 °F -2.6 °F -0.4 °F 67% 30.20 in 10.0 mi West 6.9 mph - N/A   Overcast
6:55 PM 8.6 °F -3.7 °F 1.4 °F 73% 30.19 in 10.0 mi WNW 8.1 mph - N/A   Overcast
7:15 PM 8.6 °F -1.3 °F 1.4 °F 73% 30.19 in 10.0 mi WNW 5.8 mph - N/A   Overcast
7:35 PM 8.6 °F 0.1 °F 1.4 °F 73% 30.18 in 10.0 mi West 4.6 mph - N/A   Overcast
7:55 PM 8.6 °F 0.1 °F 1.4 °F 73% 30.18 in 10.0 mi West 4.6 mph - N/A   Overcast
8:15 PM 8.6 °F -2.6 °F 1.4 °F 73% 30.17 in 10.0 mi WNW 6.9 mph - N/A   Overcast
8:35 PM 8.6 °F -3.7 °F 1.4 °F 73% 30.18 in 10.0 mi WNW 8.1 mph - N/A   Overcast
8:55 PM 8.6 °F -4.7 °F 1.4 °F 73% 30.18 in 10.0 mi WNW 9.2 mph - N/A   Overcast
9:15 PM 8.6 °F -3.7 °F 1.4 °F 73% 30.18 in 9.0 mi WNW 8.1 mph - N/A   Overcast
9:35 PM 8.6 °F -4.7 °F 3.2 °F 79% 30.17 in 9.0 mi WNW 9.2 mph - N/A   Overcast
9:55 PM 8.6 °F -4.7 °F 3.2 °F 79% 30.17 in 9.0 mi WNW 9.2 mph - N/A   Overcast
10:15 PM 8.6 °F -3.7 °F 3.2 °F 79% 30.16 in 8.0 mi WNW 8.1 mph - N/A   Overcast
10:35 PM 8.6 °F -6.3 °F 3.2 °F 79% 30.16 in 10.0 mi WNW 11.5 mph - N/A   Overcast
10:55 PM 8.6 °F -5.5 °F 3.2 °F 79% 30.16 in 10.0 mi WNW 10.4 mph - N/A   Overcast
11:15 PM 8.6 °F -5.5 °F 1.4 °F 73% 30.16 in 10.0 mi WNW 10.4 mph - N/A   Overcast
11:35 PM 8.6 °F -3.7 °F 1.4 °F 73% 30.15 in 10.0 mi West 8.1 mph - N/A   Overcast
11:55 PM 8.6 °F -2.6 °F 1.4 °F 73% 30.14 in 10.0 mi WNW 6.9 mph - N/A   Overcast